Vorticity
3 11 9 4 5 3 11 14 17 3 -0 1 12 7 4 3 3 9 4 2 1 1 5 -0 -0 2 4 6 1 1 2 7 7 12 17 13 11 15 9 11 24 23 23 20
15 6 7 6 5 12 11 9 10 11 9 26 4 2 2 3 -3 -1 1 2 0 -0 -4 0 5 5 -0 -1 -1 5 8 11 19 19 21 20 16 14 25 15 13 7 9 12
5 9 4 4 11 1 10 13 3 17 11 32 1 3 -1 6 6 4 2 1 2 3 4 4 1 -0 2 2 7 12 15 13 16 19 19 15 14 14 12 10 1 7 11 13
5 3 3 8 7 7 7 -4 21 6 -8 -11 -12 22 3 -3 11 7 3 2 2 1 0 1 0 1 4 9 15 11 13 17 23 21 18 16 13 15 10 -0 3 10 11 12
9 5 4 6 2 7 6 6 20 14 -9 3 16 -6 53 6 -3 6 6 3 3 1 2 1 3 5 11 15 11 15 18 22 26 16 7 6 13 13 2 1 8 9 11 13
8 8 6 2 5 6 6 11 24 24 12 14 32 -12 30 14 7 -2 7 5 3 1 0 3 6 12 12 12 14 17 20 23 16 9 7 3 11 -2 2 11 8 10 11 13
12 10 9 6 9 12 10 11 13 8 6 9 11 13 -6 3 5 -1 4 4 2 -0 4 5 9 12 11 11 15 16 12 10 2 12 16 12 4 3 10 10 11 11 13 14
8 4 8 14 5 -2 8 8 6 14 8 -8 2 9 15 2 8 6 3 1 0 3 5 8 10 10 11 13 16 10 8 11 10 1 5 5 5 9 9 12 12 14 15 14
9 7 7 5 4 5 7 11 6 9 17 16 16 9 5 12 10 8 4 4 1 8 7 9 10 11 11 12 7 4 1 1 2 3 5 11 14 12 11 13 15 17 16 16
13 7 13 11 10 14 4 6 5 8 11 12 5 11 12 6 4 6 5 -8 11 7 8 10 11 12 11 7 0 3 7 8 10 15 11 9 9 12 15 17 17 17 16 14
5 17 9 8 8 2 6 7 10 8 4 3 7 19 8 -4 6 0 -6 10 6 4 10 11 11 10 12 3 3 9 5 14 13 7 7 11 13 17 16 16 14 13 11 9
13 11 8 1 6 11 13 -1 5 4 11 2 -2 18 9 25 -12 -7 6 6 4 9 11 10 10 9 5 6 5 11 13 10 8 8 11 14 16 15 13 11 14 9 9 9
-8 9 10 10 21 19 8 7 4 6 12 15 -1 5 6 -9 -6 12 11 4 5 11 10 8 9 6 6 4 10 9 6 8 11 13 15 17 13 10 7 9 8 10 8 9
4 10 3 -11 2 -19 2 11 12 7 8 -7 2 -12 13 8 13 12 4 2 10 10 10 10 9 6 8 6 10 7 7 10 15 18 15 9 6 8 9 11 14 12 12 13
11 10 8 8 10 10 4 8 8 6 0 8 -11 -1 5 -2 9 6 0 8 12 12 10 8 8 9 4 9 9 7 13 16 18 12 5 8 10 10 11 13 15 13 13 12
11 8 11 19 9 9 9 14 17 13 9 11 18 17 14 21 5 1 3 9 11 10 8 7 9 7 6 11 8 11 15 15 8 5 8 9 12 13 14 14 14 12 10 10
11 7 9 15 9 9 37 40 36 15 6 15 12 19 8 7 3 -1 7 11 11 12 8 8 9 6 9 10 8 12 17 7 4 9 8 12 13 13 12 12 12 12 12 12
3 6 6 6 18 20 10 10 -8 1 13 15 14 10 8 5 -5 4 11 12 11 11 9 9 7 7 11 7 11 16 15 2 7 10 12 13 13 12 12 12 11 12 12 10
9 5 4 3 10 -15 34 30 31 9 7 18 17 15 15 -10 7 16 9 13 10 10 9 8 8 9 10 7 14 15 8 3 8 11 13 12 11 11 10 10 10 11 10 8
11 7 -9 16 8 3 -4 -2 -3 15 28 2 -4 16 -6 9 16 -11 12 11 11 11 9 10 8 11 8 9 17 7 9 9 10 11 12 11 10 10 9 9 9 9 8 7
14 20 7 4 2 14 1 14 22 18 4 -14 11 6 3 9 10 12 11 11 12 11 9 9 9 11 7 12 16 8 11 10 10 11 12 10 9 9 8 9 9 9 9 7
4 12 10 24 5 16 26 18 5 -11 4 5 6 6 6 7 8 12 10 13 13 11 11 9 12 8 7 14 12 10 12 11 10 11 11 9 9 8 9 9 10 10 10 9
19 -3 -13 -8 -3 -20 -10 -9 3 8 5 6 8 7 9 7 10 9 10 13 11 12 11 11 9 7 8 19 7 10 11 10 11 11 10 9 9 11 10 11 10 13 13 13
9 13 4 11 10 11 10 5 5 8 9 9 10 9 8 6 9 9 11 14 14 13 13 10 7 8 14 18 9 11 11 11 10 11 10 10 10 10 10 11 13 13 13 16
1 6 3 1 5 13 12 10 9 12 10 12 10 10 6 10 8 8 12 15 14 14 11 8 8 11 21 11 9 11 11 11 10 9 9 9 10 11 10 11 10 10 13 14
11 13 11 12 -2 8 11 8 9 11 9 10 12 10 8 9 10 11 15 16 14 11 8 8 10 18 11 11 11 11 10 10 9 9 9 9 9 9 9 9 10 11 10 11
Height
3186 3190 3190 3189 3189 3188 3189 3190 3190 3188 3187 3187 3186 3187 3187 3187 3187 3185 3183 3181 3179 3177 3173 3169 3166 3162 3157 3152 3146 3138 3132 3125 3119 3110 3101 3093 3087 3080 3074 3067 3059 3053 3048 3041
3188 3188 3187 3188 3188 3188 3189 3190 3189 3188 3187 3188 3188 3188 3187 3185 3183 3182 3180 3178 3177 3174 3171 3168 3164 3158 3152 3146 3140 3134 3126 3119 3111 3101 3093 3086 3079 3074 3067 3060 3053 3046 3039 3033
3188 3188 3187 3188 3189 3190 3189 3191 3190 3190 3188 3189 3189 3189 3186 3182 3180 3179 3177 3176 3173 3171 3167 3163 3160 3154 3148 3142 3134 3126 3119 3110 3100 3091 3085 3079 3075 3068 3063 3056 3048 3040 3032 3025
3187 3187 3187 3188 3189 3189 3190 3188 3188 3187 3188 3187 3186 3181 3184 3182 3178 3177 3175 3173 3170 3168 3165 3161 3155 3150 3144 3137 3129 3120 3110 3101 3092 3084 3078 3072 3066 3060 3053 3047 3039 3031 3024 3017
3187 3187 3187 3188 3188 3187 3188 3186 3186 3187 3187 3186 3185 3186 3177 3178 3178 3175 3172 3169 3167 3165 3161 3156 3150 3145 3140 3132 3123 3113 3104 3095 3087 3081 3075 3068 3062 3057 3050 3042 3034 3026 3017 3009
3185 3186 3187 3186 3186 3186 3186 3185 3184 3184 3186 3182 3178 3181 3175 3177 3177 3172 3169 3167 3165 3162 3158 3154 3149 3141 3135 3127 3117 3107 3099 3090 3084 3078 3072 3067 3059 3053 3045 3037 3028 3018 3009 3001
3185 3185 3185 3186 3186 3185 3185 3186 3181 3180 3179 3172 3176 3178 3173 3169 3169 3168 3167 3165 3162 3159 3155 3151 3145 3137 3127 3120 3112 3106 3097 3090 3084 3077 3069 3063 3056 3048 3039 3030 3021 3011 3003 2994
3185 3186 3185 3184 3185 3185 3185 3185 3183 3176 3171 3172 3175 3170 3171 3166 3165 3165 3163 3161 3160 3157 3152 3147 3139 3131 3124 3117 3111 3104 3096 3088 3080 3074 3067 3059 3052 3043 3034 3025 3015 3006 2997 2988
3184 3184 3182 3182 3183 3185 3183 3184 3182 3181 3177 3176 3168 3168 3166 3163 3163 3162 3161 3161 3158 3154 3149 3142 3135 3128 3121 3115 3107 3099 3092 3085 3078 3071 3064 3055 3047 3038 3029 3020 3011 3002 2993 2985
3181 3183 3181 3181 3181 3181 3181 3182 3182 3180 3176 3169 3164 3166 3163 3162 3162 3161 3160 3159 3155 3150 3144 3137 3130 3124 3117 3111 3104 3097 3089 3083 3076 3068 3059 3051 3042 3033 3025 3016 3008 2999 2991 2983
3180 3181 3181 3179 3179 3180 3181 3180 3179 3179 3178 3171 3164 3161 3160 3160 3159 3160 3158 3154 3149 3144 3138 3133 3126 3119 3113 3107 3101 3094 3088 3081 3072 3064 3055 3046 3038 3031 3022 3014 3006 2998 2990 2983
3177 3178 3179 3178 3175 3175 3176 3176 3177 3177 3174 3174 3171 3163 3157 3158 3157 3157 3153 3149 3144 3139 3134 3129 3122 3117 3111 3105 3099 3091 3083 3075 3068 3060 3052 3044 3036 3029 3022 3014 3006 2998 2990 2983
3175 3176 3176 3174 3175 3173 3173 3173 3173 3172 3171 3168 3168 3160 3156 3156 3153 3151 3148 3144 3140 3135 3130 3124 3120 3115 3110 3104 3096 3087 3079 3072 3066 3057 3050 3043 3035 3029 3021 3013 3006 2998 2991 2984
3172 3172 3173 3173 3173 3172 3172 3170 3169 3169 3167 3164 3162 3160 3153 3152 3150 3147 3144 3140 3136 3132 3127 3122 3118 3113 3106 3101 3092 3084 3077 3070 3063 3055 3049 3042 3035 3027 3020 3013 3006 2998 2991 2985
3169 3169 3167 3167 3167 3167 3167 3165 3164 3162 3162 3161 3158 3156 3155 3149 3147 3145 3142 3138 3133 3128 3123 3119 3114 3109 3103 3097 3089 3083 3076 3068 3061 3055 3049 3042 3034 3027 3020 3014 3006 2999 2993 2986
3165 3165 3163 3163 3161 3161 3160 3158 3156 3155 3154 3152 3151 3149 3149 3145 3143 3142 3138 3134 3129 3125 3120 3115 3109 3105 3100 3094 3087 3079 3073 3066 3061 3055 3047 3041 3034 3028 3021 3014 3009 3002 2995 2988
3161 3162 3161 3160 3158 3156 3154 3149 3149 3149 3148 3148 3147 3146 3142 3142 3140 3138 3133 3130 3126 3121 3116 3112 3107 3102 3098 3091 3084 3077 3072 3064 3060 3054 3046 3040 3034 3028 3021 3015 3010 3004 2997 2991
3156 3158 3159 3157 3156 3156 3147 3146 3146 3145 3144 3143 3141 3139 3139 3138 3136 3133 3130 3125 3120 3115 3111 3108 3103 3099 3093 3088 3080 3075 3071 3064 3060 3054 3047 3041 3035 3028 3023 3017 3012 3006 2999 2993
3152 3154 3155 3155 3154 3148 3145 3142 3142 3141 3142 3139 3138 3137 3136 3135 3132 3129 3125 3120 3116 3110 3107 3104 3099 3095 3090 3084 3079 3075 3071 3063 3059 3054 3048 3041 3036 3031 3024 3018 3012 3007 3001 2996
3147 3149 3154 3151 3151 3146 3141 3140 3139 3138 3137 3135 3135 3134 3133 3132 3130 3125 3119 3115 3112 3108 3104 3099 3096 3091 3086 3082 3078 3074 3070 3063 3059 3055 3049 3042 3037 3032 3026 3019 3013 3006 3001 2996
3144 3145 3146 3147 3146 3141 3137 3136 3136 3138 3139 3133 3132 3130 3129 3129 3127 3121 3116 3111 3107 3104 3100 3096 3093 3089 3084 3080 3076 3073 3069 3064 3058 3054 3049 3043 3038 3032 3027 3021 3015 3009 3004 2999
3140 3141 3140 3142 3143 3137 3133 3133 3135 3133 3129 3128 3127 3125 3123 3121 3119 3116 3111 3107 3104 3100 3096 3094 3089 3086 3082 3079 3075 3072 3068 3064 3059 3055 3050 3044 3040 3034 3029 3023 3018 3012 3007 3003
3136 3135 3136 3137 3134 3130 3129 3128 3128 3126 3125 3123 3122 3120 3117 3114 3112 3111 3107 3102 3099 3096 3093 3090 3087 3083 3080 3077 3074 3071 3068 3063 3060 3056 3051 3046 3041 3037 3031 3026 3021 3016 3010 3005
3128 3130 3129 3128 3128 3126 3124 3123 3122 3120 3119 3117 3116 3114 3112 3109 3106 3105 3103 3099 3096 3092 3090 3087 3084 3080 3078 3075 3073 3071 3067 3064 3060 3057 3053 3048 3044 3039 3034 3028 3023 3018 3012 3008
3125 3125 3123 3122 3121 3120 3119 3117 3116 3114 3112 3111 3110 3108 3106 3105 3101 3099 3097 3094 3092 3090 3087 3084 3081 3078 3076 3074 3073 3070 3067 3065 3060 3058 3054 3050 3046 3042 3035 3030 3025 3018 3013 3009
3119 3119 3118 3116 3114 3113 3112 3111 3110 3108 3106 3104 3103 3102 3100 3099 3096 3093 3090 3087 3085 3086 3084 3082 3078 3076 3075 3074 3072 3070 3067 3066 3061 3059 3056 3052 3048 3043 3037 3031 3025 3019 3014 3009